Leesburg, VA

10:58 PM EDT on October 18, 2019 (GMT -0400)
Leesburg Executive

Weather History for KJYO - May, 2019

Change the Weather History Date:

Wednesday, May 22, 2019

  Actual Average (WUND) Record (WUND)
Temperature  
Mean Temperature 62 °F -  
Max Temperature 73 °F - - (-1)
Min Temperature 50 °F - - (-1)
Degree Days  
Heating Degree Days 4    
Growing Degree Days 12 (Base 50)    
Moisture  
Dew Point 49 °F    
Average Humidity 62    
Maximum Humidity 94    
Minimum Humidity 38    
Precipitation  
Precipitation 0.00 in - - ()
Sea Level Pressure  
Sea Level Pressure 30.25 in    
Wind  
Wind Speed 3 mph (SSE)    
Max Wind Speed 10 mph    
Max Gust Speed 9 mph    
Visibility 10 miles    
Events      
Averages and records for this station are not official NWS values.
T = Trace of Precipitation, MM = Missing Value Source: NWS Daily Summary

Daily Weather History Graph

Daily Weather History Graph

Search for Another Location

Airport or City:

Astronomy

May. 22, 2019 Rise Set
Actual Time 5:51 AM EDT 8:22 PM EDT
Civil Twilight 5:21 AM EDT 8:53 PM EDT
Nautical Twilight 4:43 AM EDT 9:31 PM EDT
Astronomical Twilight 4:00 AM EDT 10:14 PM EDT
Moon No Moon Rise 8:58 AM EDT (5/22)
Length of Visible Light 15h 32m
Length of Day
14h 30m
Waning Gibbous, 85% of the Moon is Illuminated
May 22
Waning Gibbous
May 26
Last Quarter
Jun 3
New
Jun 10
First Quarter
Jun 17
Full

Hourly Weather History & Observations

Time (EDT) Temp. Dew Point Humidity Pressure Visibility Wind Dir Wind Speed Gust Speed Precip Events Conditions
12:15 AM 53.6 °F 50.0 °F 88% 30.16 in 10.0 mi NW 3.5 mph - N/A   Clear
12:35 AM 53.6 °F 50.0 °F 88% 30.16 in 10.0 mi Calm Calm - N/A   Clear
12:55 AM 53.6 °F 50.0 °F 88% 30.17 in 10.0 mi Calm Calm - N/A   Clear
1:15 AM 51.8 °F 50.0 °F 94% 30.18 in 10.0 mi Calm Calm - N/A   Clear
1:35 AM 51.8 °F 50.0 °F 94% 30.18 in 10.0 mi Calm Calm - N/A   Clear
1:55 AM 51.8 °F 50.0 °F 94% 30.19 in 10.0 mi Calm Calm - N/A   Clear
2:15 AM 51.8 °F 50.0 °F 94% 30.20 in 10.0 mi North 3.5 mph - N/A   Clear
2:35 AM 53.6 °F 48.2 °F 82% 30.20 in 10.0 mi North 3.5 mph - N/A   Clear
2:55 AM 53.6 °F 48.2 °F 82% 30.21 in 10.0 mi NE 3.5 mph - N/A   Clear
3:35 AM 55.4 °F 48.2 °F 77% 30.21 in 10.0 mi NNE 5.8 mph - N/A   Clear
3:55 AM 55.4 °F 48.2 °F 77% 30.21 in 10.0 mi NNE 5.8 mph - N/A   Clear
4:15 AM 55.4 °F 48.2 °F 77% 30.22 in 10.0 mi NNE 3.5 mph - N/A   Clear
4:35 AM 53.6 °F 48.2 °F 82% 30.23 in 10.0 mi North 4.6 mph - N/A   Clear
4:55 AM 53.6 °F 48.2 °F 82% 30.23 in 10.0 mi NNE 4.6 mph - N/A   Clear
5:15 AM 53.6 °F 48.2 °F 82% 30.23 in 10.0 mi North 4.6 mph - N/A   Clear
5:35 AM 50.0 °F 48.2 °F 94% 30.24 in 10.0 mi Calm Calm - N/A   Clear
5:55 AM 51.8 °F 48.2 °F 88% 30.24 in 10.0 mi Calm Calm - N/A   Clear
6:15 AM 50.0 °F 46.4 °F 87% 30.26 in 10.0 mi Calm Calm - N/A   Clear
6:35 AM 51.8 °F 50.0 °F 94% 30.27 in 10.0 mi Calm Calm - N/A   Clear
6:55 AM 53.6 °F 50.0 °F 88% 30.27 in 10.0 mi Calm Calm - N/A   Clear
7:15 AM 55.4 °F 50.0 °F 82% 30.28 in 10.0 mi Calm Calm - N/A   Scattered Clouds
7:35 AM 57.2 °F 50.0 °F 77% 30.29 in 10.0 mi Calm Calm - N/A   Mostly Cloudy
7:55 AM 59.0 °F 48.2 °F 67% 30.29 in 10.0 mi NNE 3.5 mph - N/A   Overcast
8:15 AM 59.0 °F 46.4 °F 63% 30.29 in 10.0 mi Calm Calm - N/A   Mostly Cloudy
8:35 AM 60.8 °F 46.4 °F 59% 30.30 in 10.0 mi Calm Calm - N/A   Scattered Clouds
8:55 AM 62.6 °F 44.6 °F 52% 30.31 in 10.0 mi ESE 3.5 mph - N/A   Scattered Clouds
9:15 AM 62.6 °F 44.6 °F 52% 30.30 in 10.0 mi NE 3.5 mph - N/A   Scattered Clouds
9:35 AM 62.6 °F 44.6 °F 52% 30.31 in 10.0 mi East 3.5 mph - N/A   Mostly Cloudy
9:55 AM 62.6 °F 44.6 °F 52% 30.31 in 10.0 mi NE 3.5 mph - N/A   Overcast
10:15 AM 62.6 °F 46.4 °F 55% 30.30 in 10.0 mi Calm Calm - N/A   Mostly Cloudy
10:35 AM 64.4 °F 44.6 °F 49% 30.31 in 10.0 mi SE 5.8 mph - N/A   Scattered Clouds
10:55 AM 64.4 °F 44.6 °F 49% 30.30 in 10.0 mi ESE 4.6 mph - N/A   Clear
11:15 AM 64.4 °F 46.4 °F 52% 30.30 in 10.0 mi South 3.5 mph - N/A   Clear
11:35 AM 66.2 °F 44.6 °F 46% 30.30 in 10.0 mi SE 5.8 mph - N/A   Clear
11:55 AM 68.0 °F 42.8 °F 40% 30.30 in 10.0 mi ESE 4.6 mph - N/A   Clear
12:15 PM 68.0 °F 44.6 °F 43% 30.30 in 10.0 mi SE 3.5 mph - N/A   Clear
12:35 PM 69.8 °F 44.6 °F 40% 30.30 in 10.0 mi SSE 6.9 mph - N/A   Clear
12:55 PM 69.8 °F 44.6 °F 40% 30.29 in 10.0 mi Calm Calm - N/A   Clear
1:15 PM 69.8 °F 46.4 °F 43% 30.28 in 10.0 mi South 3.5 mph - N/A   Clear
1:35 PM 69.8 °F 42.8 °F 38% 30.28 in 10.0 mi SSE 4.6 mph - N/A   Clear
1:55 PM 69.8 °F 44.6 °F 40% 30.28 in 10.0 mi SSE 4.6 mph - N/A   Clear
2:15 PM 71.6 °F 46.4 °F 41% 30.28 in 10.0 mi South 6.9 mph - N/A   Clear
2:35 PM 71.6 °F 46.4 °F 41% 30.27 in 10.0 mi South 10.4 mph - N/A   Clear
2:55 PM 71.6 °F 44.6 °F 38% 30.27 in 10.0 mi SE 3.5 mph - N/A   Clear
3:15 PM 71.6 °F 46.4 °F 41% 30.27 in 10.0 mi SSW 6.9 mph - N/A   Clear
3:35 PM 73.4 °F 48.2 °F 41% 30.26 in 10.0 mi SSW 4.6 mph - N/A   Clear
4:15 PM 71.6 °F 48.2 °F 43% 30.25 in 10.0 mi South 8.1 mph - N/A   Clear
4:35 PM 73.4 °F 50.0 °F 44% 30.24 in 10.0 mi South 8.1 mph - N/A   Clear
4:55 PM 73.4 °F 50.0 °F 44% 30.24 in 10.0 mi SE 5.8 mph 9.2 mph N/A   Clear
5:15 PM 73.4 °F 51.8 °F 47% 30.23 in 10.0 mi South 3.5 mph - N/A   Clear
5:35 PM 73.4 °F 51.8 °F 47% 30.23 in 10.0 mi South 9.2 mph - N/A   Clear
5:55 PM 73.4 °F 51.8 °F 47% 30.23 in 10.0 mi South 8.1 mph - N/A   Clear
6:15 PM 73.4 °F 51.8 °F 47% 30.22 in 10.0 mi South 9.2 mph - N/A   Clear
6:35 PM 73.4 °F 51.8 °F 47% 30.21 in 10.0 mi SSE 8.1 mph - N/A   Clear
6:55 PM 71.6 °F 51.8 °F 50% 30.22 in 10.0 mi SSE 8.1 mph - N/A   Clear
7:15 PM 71.6 °F 51.8 °F 50% 30.23 in 10.0 mi SE 6.9 mph - N/A   Clear
7:35 PM 69.8 °F 51.8 °F 53% 30.23 in 10.0 mi SSE 9.2 mph - N/A   Clear
7:55 PM 69.8 °F 51.8 °F 53% 30.23 in 10.0 mi SSE 6.9 mph - N/A   Clear
8:15 PM 69.8 °F 51.8 °F 53% 30.24 in 10.0 mi SSE 6.9 mph - N/A   Clear
8:35 PM 69.8 °F 51.8 °F 53% 30.24 in 10.0 mi SSE 8.1 mph - N/A   Clear
8:55 PM 68.0 °F 51.8 °F 56% 30.24 in 10.0 mi SSE 10.4 mph - N/A   Clear
9:15 PM 68.0 °F 51.8 °F 56% 30.25 in 10.0 mi South 6.9 mph - N/A   Scattered Clouds
9:35 PM 68.0 °F 51.8 °F 56% 30.25 in 10.0 mi SSE 6.9 mph - N/A   Mostly Cloudy
9:55 PM 68.0 °F 51.8 °F 56% 30.25 in 10.0 mi South 6.9 mph - N/A   Overcast
10:15 PM 68.0 °F 51.8 °F 56% 30.26 in 10.0 mi South 5.8 mph - N/A   Mostly Cloudy
10:35 PM 68.0 °F 51.8 °F 56% 30.25 in 10.0 mi South 8.1 mph - N/A   Mostly Cloudy
10:55 PM 66.2 °F 51.8 °F 60% 30.25 in 10.0 mi South 5.8 mph - N/A   Mostly Cloudy
11:15 PM 64.4 °F 53.6 °F 68% 30.25 in 10.0 mi South 4.6 mph - N/A   Clear
11:35 PM 64.4 °F 53.6 °F 68% 30.25 in 10.0 mi South 6.9 mph - N/A   Clear
11:55 PM 62.6 °F 53.6 °F 72% 30.25 in 10.0 mi SSW 3.5 mph - N/A   Clear